Regional Weather Roundup
Issued by NWS

Home | Current Version | Previous Version | Text Only | Print | Product List | Glossary Off
Versions: 1 2 3 4 5 6 7 8 9 10 11 12 13 14 15 16 17 18 19 20 21 22 23 24 25 26 27 28 29 30 31 32 33 34 35 36 37 38 39 40 41 42 43 44 45 46 47 48 49 50

000
ASUS45 KSLC 272010
RWRUT

UTAH REGIONAL WEATHER ROUNDUP
NATIONAL WEATHER SERVICE SALT LAKE CITY UT
100 PM MST FRI FEB 27 2015

UTZ001>011-023>025-272100-

NORTHERN UTAH

CITY           SKY/WX    TMP DP  RH WIND       PRES   REMARKS
BRIGHAM CITY   MOSUNNY   42  28  57 S15       29.78F
HILL AFB       PTSUNNY   39  25  57 S9        29.77F WCI  33
LOGAN          CLOUDY    36  26  67 NW3       29.78F
OGDEN          CLOUDY    39  25  57 SE7       29.77F WCI  34
PROVO AIRPORT  CLOUDY    39  27  60 VRB5      29.79F
SALT LAKE CITY PTSUNNY   42  26  53 S10       29.78F
VERNAL         MOSUNNY   33  17  51 W8        29.82F WCI  26
WENDOVER       PTSUNNY   43  28  56 SE7       29.75F
HEBER CITY     CLOUDY    36  19  51 CALM      29.75F
WEST JORDAN    CLOUDY    39  27  60 SE10      29.78F WCI  32

$$

UTZ012>022-026-027-272100-

SOUTHERN/CENTRAL UTAH

CITY           SKY/WX    TMP DP  RH WIND       PRES   REMARKS
BLANDING       CLOUDY    31  26  81 CALM      29.90F
BRYCE CANYON   PTSUNNY   30  19  63 SE9       29.75F WCI  22
CEDAR CITY     MOSUNNY   40  18  41 CALM      29.73F
DELTA          MOSUNNY   43  21  41 CALM      29.76F
HANKSVILLE     SUNNY     43  23  45 CALM      29.80F
MILFORD        SUNNY     47  18  31 S8        29.73F
MOAB/CYNLANDS  MOSUNNY   41  26  55 VRB3      29.77F
PRICE          PTSUNNY   38  14  37 S7        29.75F WCI  33
ST GEORGE      CLOUDY    55  27  33 SW5       29.75F
KANAB          PTSUNNY   45  27  49 SW5       29.78F

$$

REGIONAL REPORTS     COLORADO/ARIZONA

CITY           SKY/WX    TMP DP  RH WIND       PRES   REMARKS
CRAIG, CO      SUNNY     29  18  63 VRB5      29.81F WCI  24
GRAND JUNCTION CLOUDY    39  25  57 CALM      29.79F
RIFLE          PTSUNNY   36  18  48 VRB5      29.77F WCI  32
MONTROSE       MOSUNNY   33  24  69 NW8       29.80F WCI  26
CORTEZ         LGT SNOW  32  30  92 SW5       29.82F FOG     WCI  27
PAGE, AZ       CLOUDY    42  35  76 E9        29.79F
GRAND CANYON   CLOUDY    36  29  75 VRB3      29.79F
KINGMAN        MOSUNNY   59  25  27 NW5       29.73F
FLAGSTAFF      CLOUDY    38  22  52 S8G21     29.79F WCI  32

$$

REGIONAL REPORTS    NEVADA/IDAHO/WYOMING

CITY           SKY/WX    TMP DP  RH WIND       PRES   REMARKS
LAS VEGAS, NV  MOSUNNY   61  22  22 VRB3      29.69F
ELY            PTSUNNY   42  10  27 VRB3      29.70F
ELKO           CLOUDY    43  25  49 S6        29.70F
POCATELLO, ID  PTSUNNY   36  27  69 CALM      29.78F
BURLEY         CLOUDY    42  31  64 NE5       29.73F
EVANSTON, WY   CLOUDY    25  18  74 SW8       29.73F WCI  16
ROCK SPRINGS   SUNNY     25  13  60 N3        29.77F
KEMMERER       CLOUDY    23  14  68 SE3       29.75

$$



USA.gov is the U.S. government's official web portal to all federal, state and local government web resources and services.